Zeerust Airport

Jump to: basic info | weather | runways | comments

Related pages: nearby airports | nearby navaids | notams | map

Basic information (top)

Codes: FAZR
Location: lon -25.599001, lat 26.042299, elev 4,258 ft / 1,298 m msl
Status: small_airport

Weather (top)

Current conditions for Manyani Game Lodge Airport 22nm (41km) SW (rec'd 2014/04/23 06:00Z):

FAML 230600Z 16005KT CAVOK 11/// Q1017

Airport forecast for Mmabatho International Airport 29nm (54km) WSW (rec'd 2014/09/28 10:00Z):

TAF FAMM 280900Z 2810/2818 35020KT CAVOK PROB30 
      TEMPO 2814/2818 TS FEW040CB 
      BECMG 2816/2818 31008KT TX33/2813ZTN23/2818Z

Runways (top)

04/22: 6,480 x 100 ft (1,975 x 30 m) — paved — not lighted

Latest comments (top)

No comments yet for Zeerust Airport

More... (top)

See also NOTAMs and nearby airports and navaids, or visit the Zeerust Airport page at the main OurAirports website..